Flag for India Weather past 2 weeks in Bhinga, Uttar Pradesh, India

Now
84 °F

Passing clouds.


Feels Like: 96 °F
Forecast: 75 / 98 °F
Wind: 2 mph from North

Location: Lucknow / Amausi

Current Time: Sep 16, 2014 at 9:22:32 PM

Latest Report: Sep 16, 2014 at 8:00 PM


Visibility: 2 mi

Pressure: 29.56 "Hg

Humidity: 84%

Dew point: 79 °F

Location of BhingaLocation

Historic Weather in Bhinga — Graph

°F

Bhinga temperature yesterday

Maximum temperature yesterday: 99 °F (at 12:30 PM)
Minimum temperature yesterday: 77 °F (at 1:00 AM)
Average temperature yesterday: 88 °F

Past Weeks' High & Low Weather Summary

 TemperatureHumidityPressure
High104 °F (Sep 5, 3:00 PM)100% (Sep 1, 8:00 PM)29.74 "Hg (Sep 1, 8:00 PM)
Low75 °F (Sep 12, 10:30 AM)48% (Sep 5, 3:00 PM)29.50 "Hg (Sep 2, 5:00 PM)
Average86 °F82%29.62 "Hg
* Reported Sep 1 7:30 PM — Sep 16 8:00 PM, Bhinga, Weather by CustomWeather, © 2014

Note: Actual official high and low records may vary slightly from our data, if they occured in-between our weather recording intervals... More about our weather records

Advertising

Bhinga weather history for previous 24 hours

 ConditionsComfort  
Time TempWeatherWind HumidityBarometerVisibility
8:00 PM
Sep 16
84 °FPassing clouds.2 mph84%29.56 "Hg2 mi
7:30 PM84 °FPassing clouds.No wind84%29.56 "Hg3 mi
7:00 PM86 °FPassing clouds.No wind75%29.56 "Hg3 mi
6:30 PM88 °FScattered clouds.2 mph70%29.53 "Hg3 mi
5:30 PM93 °FScattered clouds.3 mph63%29.53 "Hg3 mi
5:00 PM93 °FScattered clouds.3 mph63%29.53 "Hg3 mi
4:30 PM93 °FScattered clouds.3 mph63%29.53 "Hg3 mi
4:00 PM95 °FScattered clouds.3 mph60%29.53 "Hg3 mi
3:30 PM91 °FScattered clouds.5 mph67%29.53 "Hg3 mi
3:00 PM90 °FBroken clouds.7 mph71%29.56 "Hg3 mi
2:30 PM91 °FBroken clouds.7 mph67%29.56 "Hg3 mi
1:30 PM99 °FBroken clouds.2 mph57%29.59 "Hg3 mi
12:30 PM95 °FBroken clouds.2 mph63%29.62 "Hg2 mi
12:00 PM93 °FBroken clouds.2 mph67%29.65 "Hg2 mi
11:30 AM91 °FBroken clouds.2 mph71%29.65 "Hg2 mi
11:00 AM93 °FBroken clouds.2 mph63%29.65 "Hg2 mi
10:30 AM93 °FBroken clouds.3 mph67%29.65 "Hg2 mi
10:00 AM93 °FBroken clouds.3 mph67%29.68 "Hg2 mi
9:30 AM93 °FBroken clouds.3 mph67%29.68 "Hg2 mi
9:00 AM90 °FBroken clouds.3 mph75%29.65 "Hg2 mi
8:30 AM86 °FHaze.5 mph79%29.65 "Hg2 mi
7:30 AM82 °FHaze.No wind89%29.65 "Hg1 mi
7:00 AM81 °FFog.No wind89%29.65 "Hg1 mi
6:30 AM79 °FScattered clouds.No wind94%29.62 "Hg2 mi
6:00 AM77 °FPartly cloudy.No wind100%29.62 "Hg2 mi
5:30 AM77 °FPartly cloudy.No wind100%29.62 "Hg2 mi
5:00 AM77 °FPartly cloudy.No wind100%29.62 "Hg2 mi
3:00 AM79 °FPartly cloudy.6 mph89%29.62 "Hg2 mi
2:00 AM81 °FPassing clouds.2 mph94%29.62 "Hg2 mi
1:00 AM81 °FPassing clouds.No wind94%29.62 "Hg2 mi
12:00 AM81 °FPassing clouds.2 mph94%29.65 "Hg2 mi
11:00 PM
Sep 15
81 °FPassing clouds.3 mph94%29.65 "Hg2 mi
10:00 PM82 °FPassing clouds.3 mph89%29.65 "Hg3 mi
9:00 PM82 °FPassing clouds.3 mph89%29.65 "Hg3 mi
Weather by CustomWeather, © 2014

See weather overviewHow to use our weather pages